Juliana Airport, Sint Maarten

3:52 PM AST on December 18, 2017 (GMT -0400)
Princess Juliana International

Weather History for TNCM - May, 2013

Change the Weather History Date:

Wednesday, May 15, 2013

  Actual Average Record
Temperature  
Mean Temperature 82 °F -  
Max Temperature 86 °F 84 °F 87 °F (1998)
Min Temperature 78 °F 76 °F 73 °F (2005)
Cooling Degree Days 17    
Growing Degree Days 32 (Base 50)    
Moisture  
Dew Point 72 °F    
Average Humidity 71    
Maximum Humidity 83    
Minimum Humidity 54    
Precipitation  
Precipitation 0.03 in 0.10 in - ()
Sea Level Pressure  
Sea Level Pressure 30.00 in    
Wind  
Wind Speed 9 mph ()    
Max Wind Speed 13 mph    
Max Gust Speed -    
Visibility 7.6 miles    
Events Rain    
Averages and records for this station are not official NWS values.
T = Trace of Precipitation, MM = Missing Value Source: Averaged Metar Reports

Daily Weather History Graph

Daily Weather History Graph

Search for Another Location

Airport or City:

Trip Planner

Search our weather history database for the weather conditions in past years. The results will help you decide how hot, cold, wet, or windy it might be!

Date:

Astronomy

May. 15, 2013 Rise Set
Actual Time 5:39 AM AST 6:38 PM AST
Civil Twilight 5:16 AM AST 7:01 PM AST
Nautical Twilight 4:48 AM AST 7:29 PM AST
Astronomical Twilight 4:20 AM AST 7:57 PM AST
Moon 10:04 AM AST (5/15) 11:08 PM AST (5/15)
Length of Visible Light 13h 45m
Length of Day
12h 59m
Waxing Crescent, 26% of the Moon is Illuminated
May 15
Waxing Crescent
May 18
First Quarter
May 25
Full
May 31
Last Quarter
Jun 8
New

Hourly Weather History & Observations

Time (AST) Temp. Heat Index Dew Point Humidity Pressure Visibility Wind Dir Wind Speed Gust Speed Precip Events Conditions
12:00 AM 80.6 °F 85.4 °F 73.4 °F 79% 30.01 in 6.2 mi East 10.4 mph - N/A   Scattered Clouds
1:00 AM 78.8 °F - 73.4 °F 83% 30.01 in 6.2 mi East 11.5 mph - N/A Rain Light Rain Showers
2:00 AM 79 °F - 72 °F 75% 30.00 in 19 mi East 11.5 mph - - Rain Light Rain Showers
2:00 AM 78.8 °F - 71.6 °F 78% 29.98 in 6.2 mi East 11.5 mph - N/A   Mostly Cloudy
3:00 AM 78.8 °F - 71.6 °F 78% 29.98 in 6.2 mi East 11.5 mph - N/A   Partly Cloudy
4:00 AM 78.8 °F - 71.6 °F 78% 29.98 in 6.2 mi East 10.4 mph - N/A   Partly Cloudy
5:00 AM 79 °F - 71 °F 72% 30.00 in 19 mi East 10.4 mph - -   Scattered Clouds
5:00 AM 78.8 °F - 71.6 °F 78% 29.98 in 6.2 mi East 10.4 mph - N/A   Partly Cloudy
6:00 AM 78.8 °F - 69.8 °F 74% 30.01 in 6.2 mi East 11.5 mph - N/A   Partly Cloudy
7:00 AM 80.6 °F 84.6 °F 71.6 °F 74% 30.01 in 6.2 mi East 11.5 mph - N/A   Partly Cloudy
8:00 AM 82 °F - 71 °F 61% 30.03 in 28 mi East 11.5 mph - -   Scattered Clouds
8:00 AM 82.4 °F 87.2 °F 71.6 °F 70% 30.04 in 6.2 mi East 11.5 mph - N/A   Partly Cloudy
9:00 AM 82.4 °F 87.2 °F 71.6 °F 70% 30.04 in 6.2 mi ESE 10.4 mph - N/A   Scattered Clouds
10:00 AM 84.2 °F 89.6 °F 71.6 °F 66% 30.04 in 6.2 mi ESE 12.7 mph - N/A   Scattered Clouds
11:00 AM 84 °F - 72 °F 60% 30.05 in 25 mi ESE 11.5 mph - -   Partly Cloudy
11:00 AM 84.2 °F 89.6 °F 71.6 °F 66% 30.04 in 6.2 mi ESE 11.5 mph - N/A   Scattered Clouds
12:00 PM 84.2 °F 89.6 °F 71.6 °F 66% 30.04 in 6.2 mi ESE 11.5 mph - N/A   Scattered Clouds
1:00 PM 84.2 °F 89.6 °F 71.6 °F 66% 30.01 in 6.2 mi ESE 9.2 mph - N/A   Partly Cloudy
2:00 PM 85 °F - 71 °F 54%  in 28 mi ESE 9.2 mph - -  
2:00 PM 84.2 °F 89.6 °F 71.6 °F 66% 29.98 in 6.2 mi ESE 9.2 mph - N/A   Partly Cloudy
3:00 PM 84.2 °F 89.6 °F 71.6 °F 66% 29.98 in 6.2 mi ESE 10.4 mph - N/A   Partly Cloudy
4:00 PM 82.4 °F 87.2 °F 71.6 °F 70% 29.95 in 6.2 mi ESE 6.9 mph - N/A   Partly Cloudy
5:00 PM 82 °F - 72 °F 66% 29.96 in 22 mi ESE 6.9 mph - -   Scattered Clouds
5:00 PM 82.4 °F 88.2 °F 73.4 °F 74% 29.95 in 6.2 mi ESE 6.9 mph - N/A   Partly Cloudy
6:00 PM 80.6 °F 85.4 °F 73.4 °F 79% 29.95 in 6.2 mi ESE 6.9 mph - N/A   Scattered Clouds
7:00 PM 80.6 °F 84.6 °F 71.6 °F 74% 29.98 in 6.2 mi East 6.9 mph - N/A   Scattered Clouds
8:00 PM 81 °F - 71 °F 65% 29.98 in 25 mi ESE 11.5 mph - -   Overcast
8:00 PM 80.6 °F 84.6 °F 71.6 °F 74% 29.98 in 6.2 mi ESE 11.5 mph - N/A   Scattered Clouds
9:00 PM 80.6 °F 84.6 °F 71.6 °F 74% 29.98 in 6.2 mi East 6.9 mph - N/A   Partly Cloudy
10:00 PM 80.6 °F 84.6 °F 71.6 °F 74% 29.98 in 6.2 mi ESE 6.9 mph - N/A   Partly Cloudy
11:00 PM 80 °F - 72 °F 71% 30.01 in 19 mi East 5.8 mph - -   Scattered Clouds
11:00 PM 80.6 °F 84.6 °F 71.6 °F 74% 30.01 in 6.2 mi East 5.8 mph - N/A   Partly Cloudy